Location: Ammerl�gen
(47.2167°N, 9.6000°E)
Time: 04:59:17
(UTC+00:00)

Meteor 1-20 Rocket - Pass Details

Date: 21 April 2021
Orbit: 819 x 892 km, 81.2° (Epoch: 15 May)

Event Time Altitude Azimuth Distance (km) Brightness Sun altitude
Rises 21:50:09 0° 350° (N) 3,501 8.6 -27.3°
Reaches altitude 10° 21:52:39 10° 354° (N) 2,551 7.6 -27.5°
Enters shadow 21:58:22 63° 73° (ENE) 969 4.3 -27.9°
